User: anonymous   Login
Location: Heilwood
(40.6210°N, 78.9150°W)
Time: 18:12:27
(UTC-04:00)
Language:

Iridium 4 Rocket - Orbit

View from above orbital plane
View from above orbital plane
View from above satellite
View from above satellite

Ground track
Ground track

The orbit data is extracted from the following two-line orbital elements,

1 24797U 97020F   16151.47529473  .00000170  00000-0  30413-4 0  9995
2 24797  86.8948 133.5497 0226725 152.7070 323.0375 14.43866914  2722
Epoch (UTC): 30 May 2016 11:24:25
Eccentricity: 0.0226725
inclination: 86.8948°
perigee height: 584 km
apogee height: 907 km
right ascension of ascending node: 133.5497°
argument of perigee: 152.7070°
revolutions per day: 14.43866914
mean anomaly at epoch: 323.0375°
orbit number at epoch: 272

The dashed part of the orbit path shows where the satellite is in the earth's shadow,  

DLR